EN

Hourly Weather Bolshie Tulyany

Today, 26 October, Monday

Time Temperature Precipitation Wind Pressure Humidity
00:00 +5°C° 0 mm 3 mps 751 mmHg 93%
01:00 +6°C° 0 mm 2 mps 751 mmHg 94%
02:00 +5°C° 0 mm 2 mps 752 mmHg 94%
03:00 +5°C° 0 mm 2 mps 752 mmHg 94%
04:00 +5°C° 0 mm 2 mps 752 mmHg 94%
05:00 +5°C° 0 mm 2 mps 752 mmHg 94%
06:00 +5°C° 0 mm 2 mps 752 mmHg 94%
07:00 +6°C° 0 mm 2 mps 753 mmHg 92%
08:00 +6°C° 0 mm 2 mps 753 mmHg 89%
09:00 +7°C° 0 mm 3 mps 753 mmHg 86%
10:00 +8°C° 0 mm 3 mps 753 mmHg 80%
11:00 +10°C° 0 mm 3 mps 753 mmHg 73%
12:00 +11°C° 0 mm 3 mps 754 mmHg 67%
13:00 +11°C° 0 mm 3 mps 754 mmHg 66%
14:00 +11°C° 0 mm 3 mps 754 mmHg 65%
15:00 +12°C° 0 mm 3 mps 754 mmHg 63%
16:00 +10°C° 0 mm 2 mps 754 mmHg 69%
17:00 +9°C° 0 mm 2 mps 754 mmHg 75%
18:00 +8°C° 0 mm 2 mps 754 mmHg 80%
19:00 +8°C° 0 mm 2 mps 755 mmHg 83%
20:00 +7°C° 0 mm 2 mps 755 mmHg 85%
21:00 +7°C° 0 mm 2 mps 755 mmHg 87%
22:00 +6°C° 0 mm 2 mps 756 mmHg 89%
23:00 +6°C° 0 mm 2 mps 756 mmHg 90%

Tomorrow, 27 October, Tuesday

Time Temperature Precipitation Wind Pressure Humidity
00:00 +5°C° 0 mm 2 mps 756 mmHg 92%
01:00 +5°C° 0 mm 2 mps 756 mmHg 91%
02:00 +4°C° 0 mm 2 mps 756 mmHg 91%
03:00 +4°C° 0 mm 2 mps 757 mmHg 90%
04:00 +4°C° 0 mm 2 mps 757 mmHg 90%
05:00 +3°C° 0 mm 2 mps 757 mmHg 89%
06:00 +3°C° 0 mm 2 mps 758 mmHg 89%
07:00 +3°C° 0 mm 2 mps 758 mmHg 86%
08:00 +4°C° 0 mm 2 mps 758 mmHg 83%
09:00 +3°C° 0 mm 3 mps 758 mmHg 80%
10:00 +4°C° 0 mm 3 mps 758 mmHg 74%
11:00 +7°C° 0 mm 2 mps 759 mmHg 68%
12:00 +8°C° 0 mm 2 mps 759 mmHg 63%
13:00 +8°C° 0 mm 2 mps 759 mmHg 60%
14:00 +8°C° 0 mm 2 mps 759 mmHg 58%
15:00 +9°C° 0 mm 2 mps 759 mmHg 56%
16:00 +8°C° 0 mm 2 mps 759 mmHg 59%
17:00 +7°C° 0 mm 2 mps 759 mmHg 63%
18:00 +5°C° 0 mm 2 mps 759 mmHg 66%
19:00 +4°C° 0 mm 3 mps 759 mmHg 67%
20:00 +4°C° 0 mm 3 mps 759 mmHg 68%
21:00 +3°C° 0 mm 3 mps 759 mmHg 70%
22:00 +3°C° 0 mm 3 mps 760 mmHg 70%
23:00 +3°C° 0 mm 3 mps 760 mmHg 70%

Day after tomorrow, 28 October, Wednesday

Time Temperature Precipitation Wind Pressure Humidity
00:00 +2°C° 0 mm 3 mps 760 mmHg 70%
01:00 +2°C° 0 mm 3 mps 760 mmHg 70%
02:00 +2°C° 0 mm 3 mps 760 mmHg 70%
03:00 +1°C° 0 mm 3 mps 760 mmHg 70%
04:00 +1°C° 0 mm 3 mps 760 mmHg 70%
05:00 +1°C° 0 mm 3 mps 760 mmHg 71%
06:00 0°C° 0 mm 3 mps 760 mmHg 71%
07:00 +1°C° 0 mm 3 mps 760 mmHg 66%
08:00 0°C° 0 mm 4 mps 761 mmHg 62%
09:00 +1°C° 0 mm 4 mps 761 mmHg 58%
10:00 +3°C° 0 mm 4 mps 761 mmHg 53%
11:00 +5°C° 0 mm 4 mps 761 mmHg 48%
12:00 +6°C° 0 mm 4 mps 761 mmHg 42%
13:00 +6°C° 0 mm 4 mps 761 mmHg 41%
14:00 +7°C° 0 mm 4 mps 760 mmHg 39%
15:00 +7°C° 0 mm 4 mps 760 mmHg 38%
16:00 +6°C° 0 mm 4 mps 760 mmHg 41%
17:00 +5°C° 0 mm 3 mps 760 mmHg 44%
18:00 +3°C° 0 mm 3 mps 760 mmHg 47%
19:00 +3°C° 0 mm 3 mps 760 mmHg 47%
20:00 +3°C° 0 mm 4 mps 760 mmHg 48%
21:00 +1°C° 0 mm 4 mps 760 mmHg 48%
22:00 +1°C° 0 mm 4 mps 760 mmHg 51%
23:00 0°C° 0 mm 4 mps 760 mmHg 53%

29 October, Thursday

Time Temperature Precipitation Wind Pressure Humidity
00:00 +1°C° 0 mm 3 mps 760 mmHg 56%
01:00 +1°C° 0 mm 3 mps 760 mmHg 58%
02:00 0°C° 0 mm 3 mps 760 mmHg 60%
03:00 0°C° 0 mm 3 mps 760 mmHg 62%
04:00 0°C° 0 mm 3 mps 760 mmHg 64%
05:00 -2°C° 0 mm 4 mps 760 mmHg 65%
06:00 -2°C° 0 mm 4 mps 760 mmHg 67%
07:00 -1°C° 0 mm 4 mps 760 mmHg 65%
08:00 0°C° 0 mm 5 mps 760 mmHg 62%
09:00 +1°C° 0 mm 5 mps 760 mmHg 59%
10:00 +2°C° 0 mm 5 mps 759 mmHg 54%
11:00 +5°C° 0 mm 5 mps 759 mmHg 48%
12:00 +5°C° 0 mm 6 mps 759 mmHg 43%
13:00 +7°C° 0 mm 6 mps 759 mmHg 42%
14:00 +7°C° 0 mm 6 mps 758 mmHg 40%
15:00 +8°C° 0 mm 5 mps 758 mmHg 39%
16:00 +7°C° 0 mm 5 mps 758 mmHg 40%
17:00 +6°C° 0 mm 5 mps 758 mmHg 42%
18:00 +5°C° 0 mm 5 mps 757 mmHg 44%
19:00 +5°C° 0 mm 5 mps 757 mmHg 44%
20:00 +5°C° 0 mm 5 mps 757 mmHg 45%
21:00 +5°C° 0 mm 5 mps 757 mmHg 45%
22:00 +5°C° 0 mm 5 mps 757 mmHg 46%
23:00 +4°C° 0 mm 4 mps 757 mmHg 47%

30 October, Friday

Time Temperature Precipitation Wind Pressure Humidity
00:00 +4°C° 0 mm 4 mps 757 mmHg 49%
01:00 +4°C° 0 mm 4 mps 757 mmHg 50%
02:00 +4°C° 0 mm 4 mps 756 mmHg 52%
03:00 +4°C° 0 mm 4 mps 756 mmHg 53%
04:00 +4°C° 0 mm 4 mps 756 mmHg 56%
05:00 +3°C° 0 mm 4 mps 756 mmHg 58%
06:00 +3°C° 0 mm 4 mps 756 mmHg 60%
07:00 +3°C° 0 mm 5 mps 755 mmHg 61%
08:00 +3°C° 0 mm 5 mps 755 mmHg 63%
09:00 +3°C° 0 mm 5 mps 755 mmHg 64%
10:00 +5°C° 0 mm 5 mps 755 mmHg 63%
11:00 +6°C° 0 mm 4 mps 755 mmHg 61%
12:00 +7°C° 0 mm 4 mps 755 mmHg 60%
13:00 +7°C° 0 mm 4 mps 754 mmHg 60%
14:00 +7°C° 0 mm 4 mps 754 mmHg 60%
15:00 +8°C° 0 mm 4 mps 754 mmHg 59%
16:00 +8°C° 0 mm 3 mps 754 mmHg 62%
17:00 +8°C° 0 mm 3 mps 754 mmHg 64%
18:00 +8°C° 0 mm 2 mps 754 mmHg 66%
19:00 +8°C° 0 mm 2 mps 754 mmHg 68%
20:00 +8°C° 0 mm 3 mps 754 mmHg 69%
21:00 +8°C° 0 mm 3 mps 754 mmHg 71%
22:00 +8°C° 0 mm 3 mps 754 mmHg 74%
23:00 +7°C° 0 mm 3 mps 754 mmHg 78%

31 October, Saturday

Time Temperature Precipitation Wind Pressure Humidity
00:00 +7°C° 0 mm 3 mps 753 mmHg 81%
01:00 +7°C° 0 mm 3 mps 753 mmHg 84%
02:00 +6°C° 0 mm 2 mps 753 mmHg 87%
03:00 +6°C° 0 mm 2 mps 753 mmHg 90%
04:00 +6°C° 0 mm 2 mps 753 mmHg 90%
05:00 +6°C° 0 mm 2 mps 753 mmHg 90%
06:00 +7°C° 0 mm 1 mps 753 mmHg 90%
07:00 +7°C° 0 mm 2 mps 753 mmHg 88%
08:00 +7°C° 0 mm 2 mps 753 mmHg 86%
09:00 +7°C° 0 mm 2 mps 753 mmHg 84%
Show more